Regional Weather Roundup
Issued by NWS Northern Indiana

Home | Current Version | Previous Version | Text Only | Print | Product List | Glossary Off
Versions: 1 2 3 4 5 6 7 8 9 10 11 12 13 14 15 16 17 18 19 20 21 22 23 24 25 26 27 28 29 30 31 32 33 34 35 36 37 38 39 40 41 42 43 44 45 46 47 48 49 50

000
ASUS43 KIWX 040510
RWRIWX

KIWX WEATHER ROUNDUP
NATIONAL WEATHER SERVICE NORTHERN INDIANA
100 AM EDT FRI SEP 04 2015

NOTE: "FAIR" INDICATES FEW OR NO CLOUDS BELOW 12,000 FEET WITH NO
SIGNIFICANT WEATHER AND/OR OBSTRUCTIONS TO VISIBILITY.

* THESE STATIONS ARE NOT UNDER NWS QUALITY CONTROL. THEY ALSO MAY NOT
  REPORT WEATHER SUCH AS PRECIPITATION OR FOG.

INZ001>027-040600-
NORTHERN INDIANA

CITY           SKY/WX    TMP DP  RH WIND       PRES   REMARKS
GARY*          CLEAR     73  67  83 NE6       29.96F
VALPARAISO     MOCLDY    71  67  87 VRB3      29.96S
MICHIGAN CITY* PTCLDY    70  70 100 CALM      29.96F
LAPORTE*       CLEAR     72  72 100 N6        29.96F
KNOX*          CLEAR     70  70 100 N6        29.95R
SOUTH BEND     PTCLDY    70  67  90 NW7       29.96R
GOSHEN         CLEAR     71  68  90 W5        29.94R
MONTICELLO*    CLEAR     73  70  88 SW6       29.94S
LOGANSPORT*    CLEAR     70  63  78 CALM      29.96R
ROCHESTER*     CLEAR     77  68  73 W3        29.95S
WARSAW*        CLEAR     72  68  88 W5        29.94S
ANGOLA*        CLEAR     73  70  88 CALM      29.94R
FORT WAYNE     PTCLDY    72  68  87 SW3       29.94F
HUNTINGTON*    CLEAR     73  65  78 CALM      29.94S
PERU/GRISSOM   CLEAR     71  67  88 SW7       29.94S
MARION*        CLEAR     69  62  78 SW3       29.96S

$$
INZ028>050-040600-
CENTRAL INDIANA

CITY           SKY/WX    TMP DP  RH WIND       PRES   REMARKS
LAFAYETTE      CLEAR     72  69  90 W3        29.94S
KOKOMO*        CLEAR     72  55  56 SW8       29.95F
MUNCIE*        CLEAR     74  66  76 SW7       29.96F
INDIANAPOLIS   CLEAR     74  67  78 SW5       29.97R

$$
MIZ043>046-050>051-056>058-064>065-071>073-077>080-040600-
SOUTHWEST LOWER MICHIGAN

CITY           SKY/WX    TMP DP  RH WIND       PRES   REMARKS
BATTLE CREEK   MOCLDY    73  70  90 W5        29.94R
BENTON HARBOR  MOCLDY    69  66  90 CALM      29.95R
COLDWATER*     CLOUDY    73  70  92 CALM      29.93F
HILLSDALE*     CLOUDY    70  70 100 CALM      29.94S
HOLLAND        CLEAR     67  65  93 W3        29.94R
GRAND RAPIDS   PTCLDY    68  66  93 W7        29.93R
KALAMAZOO      MOCLDY    73  67  81 NW6       29.94R
STURGIS*       MOCLDY    72  72 100 CALM      29.94R
THREE RIVERS*  MOCLDY    72  70  93 CALM      29.94R

$$
OHZ001>008-015>018-024>025-040600-
NORTHWEST OHIO

CITY           SKY/WX    TMP DP  RH WIND       PRES   REMARKS
WAUSEON*       MOCLDY    72  72 100 SE8       29.93F
DEFIANCE       MOCLDY    77  68  73 N5        29.93R
FINDLAY        LGT RAIN  74  66  76 SE14      29.95R
TOLEDO EXPRESS CLOUDY    69  68  96 VRB6      29.95R
TOLEDO METCALF TSTM      69  65  86 E14       29.97R FOG
LIMA           MOCLDY    76  68  76 S3        29.96R

$$
AND FOR LAKE MICHIGAN COASTAL AND OPEN LAKE BUOY OBSERVATIONS

STATION/POSITION TEMP    WIND        PRES    VSBY  WAVE
                 AIR SEA DIR/SP/G                  HT/PER
                 (F)     (DEG/KT/KT) (MB)    (MI)  (FT/S)
CALUMET HARBOR    72      20/  6/  9   N/A
MICHIGAN CITY     71      10/ 12/ 13   N/A
BURNS HARBOR      72      30/ 11/ 13 1014.9R
SAINT JOSEPH      71     350/  6/  8 1015.2R
SOUTH LAKE BUOY   69 71  330/  8/ 10 1013.8R         1/ 3
4 MI NW BRIDGMAN  71 73   50/  8/ 10   N/A           2/ 3
MICHIGAN CITY     72 73   50/  8/ 10   N/A           2/ 4

$$
&&



USA.gov is the U.S. government's official web portal to all federal, state and local government web resources and services.